星链-33832 (STARLINK-33832)

导读

STARLINK-33832是美国SpaceX星链计划中的一颗卫星,于2025年4月25日发射升空。星链计划旨在构建全球卫星互联网星座,为全球偏远地区等提供高速互联网接入服务。该卫星作为星链星座扩容的组成部分,将进一步完善星链网络的覆盖范围与服务能力,推动全球互联基础设施建设。

基本信息
目录编号:
63637
目录名称:
STARLINK-33832
国际标识:
2025-083D
轨道中心:
EARTH
卫星名称:
星链-33832
卫星全名:
星链-33832 (STARLINK-33832)
卫星状态:
在轨 (已飞行497 天)
发射日期:
2025-04-25 UTC
国别 :
美国 (US)
星等 :
--
轨道信息
数据来源 国际轨道数据
星历时间: 2026-09-04T13:09:48+0800
7小时前
查看轨道信息
半长轴: 6861.188km
偏心率: 0.0000844
轨道倾角: 43.000°
近地点辐角 243.931°
升交点赤经 76.680°
平近点角 116.145°
近地点: 482.471km
远地点: 483.631km
周期: 94.267分钟
每日圈数: 15.275794
详细信息
固有亮度:
5
最大亮度:
2.5
卫星平台:
Starlink V1.0
覆盖范围:
全球
运营商:
太空探索技术公司
运营商所在国:
美国
制造商(研发单位):
太空探索技术公司
制造商所在国:
美国
使用方式:
暂无
卫星简介
Starlink 计划是 SpaceX 推出的全球卫星互联网项目,通过发射低轨道卫星,为全球尤其是偏远地区提供高速、低延迟的互联网服务。自 2019 年起,Starlink 已部署数千颗卫星,旨在缩小全球数字鸿沟,推动互联网普及。该项目还为军事、航空等行业提供通信支持,带来广泛经济效益。
2D轨道图
3D轨道图
轨道高度分析图
轨道倾角分析图
轨道综合分析图
查看轨道综合分析图